Nellis AFB, NV

10:12 AM PST on December 15, 2019 (GMT -0800)
Nellis Air Force Base

Weather History for KLSV - September, 2019

Change the Weather History Date:

Saturday, September 21, 2019

  Actual Average Record
Temperature  
Mean Temperature 74 °F -  
Max Temperature 86 °F 91 °F 100 °F (2000)
Min Temperature 63 °F 65 °F 59 °F (2006)
Cooling Degree Days 9    
Growing Degree Days 24 (Base 50)    
Moisture  
Dew Point 27 °F    
Average Humidity 18    
Maximum Humidity 23    
Minimum Humidity 13    
Precipitation  
Precipitation 0.00 in - - ()
Sea Level Pressure  
Sea Level Pressure 29.90 in    
Wind  
Wind Speed 3 mph (NE)    
Max Wind Speed 12 mph    
Max Gust Speed -    
Visibility 10 miles    
Events      
Averages and records for this station are not official NWS values.
T = Trace of Precipitation, MM = Missing Value Source: NWS Daily Summary

Daily Weather History Graph

Daily Weather History Graph

Search for Another Location

Airport or City:

Astronomy

Sep. 21, 2019 Rise Set
Actual Time 6:27 AM PDT 6:38 PM PDT
Civil Twilight 6:01 AM PDT 7:04 PM PDT
Nautical Twilight 5:31 AM PDT 7:34 PM PDT
Astronomical Twilight 5:00 AM PDT 8:04 PM PDT
Moon 11:31 PM PDT (9/21) 1:26 PM PDT (9/21)
Length of Visible Light 13h 02m
Length of Day
12h 11m
Waning Gibbous, 53% of the Moon is Illuminated
Sep 21
Waning Gibbous
Sep 21
Last Quarter
Sep 28
New
Oct 5
First Quarter
Oct 13
Full

Hourly Weather History & Observations

Time (PDT) Temp. Dew Point Humidity Pressure Visibility Wind Dir Wind Speed Gust Speed Precip Events Conditions
12:55 AM 64.8 °F 22.5 °F 20% 29.85 in 10.0 mi East 2.3 mph - N/A   Clear
1:55 AM 63.9 °F 22.8 °F 21% 29.85 in 10.0 mi North 2.3 mph - N/A   Clear
1:56 AM 63.9 °F 22.8 °F 21% 29.85 in 10.0 mi North 2.3 mph - N/A   Clear
2:55 AM 63.9 °F 24.1 °F 22% 29.88 in 10.0 mi Calm Calm - N/A   Clear
3:55 AM 64.9 °F 22.6 °F 20% 29.88 in 10.0 mi SE 3.5 mph - N/A   Clear
4:55 AM 67.3 °F 22.8 °F 19% 29.86 in 10.0 mi Variable 3.5 mph - N/A   Clear
4:56 AM 67.3 °F 22.8 °F 19% 29.86 in 10.0 mi Variable 3.5 mph - N/A   Clear
5:58 AM 63.5 °F 25.0 °F 23% 29.92 in 10.0 mi West 8.1 mph - N/A   Clear
6:56 AM 63.9 °F 25.3 °F 23% 29.94 in 10.0 mi Variable 2.3 mph - N/A   Clear
7:58 AM 64.4 °F 25.7 °F 23% 29.96 in 10.0 mi Calm Calm - N/A   Clear
8:58 AM 71.4 °F 29.5 °F 21% 29.96 in 10.0 mi South 5.8 mph - N/A   Clear
9:58 AM 75.7 °F 30.6 °F 19% 30.02 in 10.0 mi WSW 4.6 mph - N/A   Clear
10:58 AM 78.1 °F 32.4 °F 19% 29.95 in 10.0 mi NNE 8.1 mph - N/A   Clear
11:58 AM 80.4 °F 31.6 °F 17% 29.94 in 10.0 mi NE 11.5 mph - N/A   Clear
12:58 PM 81.9 °F 29.7 °F 15% 29.97 in 10.0 mi ENE 6.9 mph - N/A   Clear
1:58 PM 83.8 °F 27.7 °F 13% 29.89 in 10.0 mi Calm Calm - N/A   Clear
2:58 PM 84.9 °F 28.6 °F 13% 29.87 in 10.0 mi SSW 5.8 mph - N/A   Clear
3:58 PM 84.7 °F 28.4 °F 13% 29.85 in 10.0 mi Calm Calm - N/A   Clear
4:58 PM 85.8 °F 29.3 °F 13% 29.90 in 10.0 mi Calm Calm - N/A   Clear
5:58 PM 84.2 °F 28.0 °F 13% 29.85 in 10.0 mi Calm Calm - N/A   Clear
6:58 PM 82.2 °F 28.2 °F 14% 29.85 in 10.0 mi NE 3.5 mph - N/A   Clear
7:58 PM 79.7 °F 27.9 °F 15% 29.87 in 10.0 mi ESE 3.5 mph - N/A   Clear
8:55 PM 75.9 °F 26.2 °F 16% 29.89 in 10.0 mi NNE 2.3 mph - N/A   Clear
9:58 PM 74.3 °F 28.0 °F 18% 29.90 in 10.0 mi North 1.2 mph - N/A   Clear
10:59 PM 72.0 °F 22.8 °F 16% 29.87 in 10.0 mi North 3.5 mph - N/A   Clear
11:55 PM 67.6 °F 25.3 °F 20% 29.90 in 10.0 mi East 1.2 mph - N/A   Clear